カタログに戻る

ARIANE 5 R/B

運用中HEO
NORAD 39618·ROCKET BODY·🇫🇷 France

打ち上げ Mar 22, 2014 から Guiana Space Centre

Loading…

次のパス (今後24時間)

TLE

最新Source: Space-Track

元期: Sep 14, 2026, 05:44 UTC

1 39618U 14011C   26257.23951755  .00004339  00000-0  10509-2 0  9999
2 39618   3.0453  82.8023 7040285 291.5458  10.5136  2.59053574110331

AllMySatでARIANE 5 R/Bをリアルタイム追跡

Download on the App Store